レモン-ヨン-パンスターズ彗星

C/2015 VL62 ( Lemmon-Yeung-PanSTARRS )

English version
Home page
Updated on February 7, 2017

---------------------------------------------------------------------

・ プロフィール

発見日 2015年11月2日、12月18日、2016年1月23日
発見光度 20.7等、19.1等、19.8等
発見者 R. G. Matheny and E. J. Christensen (Mount Lemmon), W. K. Y. Yeung (near Mayhill, NM, USA), Pan-STARRS 1 telescope (Haleakala)

・ 写真集

・ 軌道要素

Epoch 2017 Sept. 4.0 TT = JDT 2458000.5
T 2017 Aug. 28.60270 TT                                 MPCW
q   2.7203176            (2000.0)            P               Q
z  -0.0006637      Peri.  128.36493     +0.80634733     -0.53708840
 +/-0.0000028      Node    94.55162     -0.58984749     -0.69953786
e   1.0018055      Incl.  165.61403     -0.04340424     -0.47136275
From 502 observations 2015 Nov. 2-2016 Nov. 10, mean residual 0".6.

・ 星図

・ 光度変化

        m1 = 6.0 + 5 logΔ + 12.0 log r

---------------------------------------------------------------------

軌道要素はM.P.E.C. 2016-V116に掲載されたものです。
星図はステラナビゲータ Ver.10 (アストロアーツ) で作成したものです。
光度グラフはComet for Windowsで作成したものです。

---------------------------------------------------------------------

Copyright(C) Seiichi Yoshida (comet@aerith.net). All rights reserved.